User: anonymous   Login
Location: Caltech
(34.1382°N, 118.1253°W)
Time: 13:08:45
(UTC-07:00)
Language:

Lacrosse 5 - Orbit

View from above orbital plane
View from above orbital plane
View from above satellite
View from above satellite

Ground track
Ground track

The orbit data is extracted from the following two-line orbital elements,

1 28646U 05016A   16146.96298918 0.00000000  00000-0  00000-0 0    01
2 28646  57.0130 131.0994 0005500 122.9525 237.0474 14.52127832    09
Epoch (UTC): 25 May 2016 23:06:42
Eccentricity: 0.0005500
inclination: 57.0130°
perigee height: 715 km
apogee height: 722 km
right ascension of ascending node: 131.0994°
argument of perigee: 122.9525°
revolutions per day: 14.52127832
mean anomaly at epoch: 237.0474°
orbit number at epoch: 0

The dashed part of the orbit path shows where the satellite is in the earth's shadow,  

DLR